Elizabeth City, NC

1:14 AM EDT on April 29, 2017 (GMT -0400)
Elizabeth City Cgas-Regional

Weather History for KECG - December, 2013

Change the Weather History Date:

Sunday, December 8, 2013

  Actual Average Record
Temperature  
Mean Temperature 43 °F 46 °F  
Max Temperature 46 °F 56 °F 77 °F (1978)
Min Temperature 39 °F 36 °F 16 °F (1954)
Degree Days  
Heating Degree Days 22 19  
Month to date heating degree days 107 142  
Since 1 July heating degree days 670 657  
Cooling Degree Days 0 0  
Month to date cooling degree days 7 0  
Year to date cooling degree days 1672 1588  
Moisture  
Dew Point 39 °F    
Average Humidity 84    
Maximum Humidity 100    
Minimum Humidity 67    
Precipitation  
Precipitation 0.63 in 0.07 in 1.18 in (1942)
Month to date precipitation 1.12 0.65  
Year to date precipitation 40.71 44.67  
Snow  
Snow 0.00 in - 2.00 in (1968)
Month to date snowfall 0.0  
Since 1 July snowfall T  
Snow Depth 0.00 in    
Sea Level Pressure  
Sea Level Pressure 30.37 in    
Wind  
Wind Speed 13 mph (North)    
Max Wind Speed 22 mph    
Max Gust Speed 28 mph    
Visibility 4 miles    
Events Fog , Rain    
T = Trace of Precipitation, MM = Missing Value Source: NWS Daily Summary

Daily Weather History Graph

Daily Weather History Graph

Search for Another Location

Airport or City:

Trip Planner

Search our weather history database for the weather conditions in past years. The results will help you decide how hot, cold, wet, or windy it might be!

Date:

Astronomy

Dec. 08, 2013 Rise Set
Actual Time 7:03 AM EST 4:49 PM EST
Civil Twilight 6:35 AM EST 5:18 PM EST
Nautical Twilight 6:03 AM EST 5:50 PM EST
Astronomical Twilight 5:31 AM EST 6:21 PM EST
Moon 11:30 AM EST (12/8) 11:27 PM EST (12/8)
Length of Visible Light 10h 43m
Length of Day
9h 46m
Waxing Crescent, 40% of the Moon is Illuminated
Dec 8
Waxing Crescent
Dec 9
First Quarter
Dec 17
Full
Dec 25
Last Quarter
Jan 1
New

Hourly Weather History & Observations

Time (EST) Temp. Windchill Dew Point Humidity Pressure Visibility Wind Dir Wind Speed Gust Speed Precip Events Conditions
12:54 AM 42.1 °F 34.5 °F 32.0 °F 67% 30.45 in 10.0 mi North 15.0 mph - N/A   Overcast
1:54 AM 42.1 °F 35.2 °F 32.0 °F 67% 30.44 in 10.0 mi NNE 12.7 mph - N/A   Overcast
2:54 AM 42.1 °F 33.9 °F 32.0 °F 67% 30.44 in 10.0 mi North 17.3 mph - N/A   Overcast
3:54 AM 42.1 °F 34.5 °F 33.1 °F 70% 30.43 in 10.0 mi North 15.0 mph - N/A   Overcast
4:37 AM 42.1 °F 33.9 °F 34.0 °F 73% 30.41 in 10.0 mi North 17.3 mph - N/A   Overcast
4:54 AM 41.0 °F 32.5 °F 34.0 °F 76% 30.42 in 10.0 mi North 17.3 mph 23.0 mph N/A   Overcast
5:34 AM 39.0 °F 30.6 °F 37.0 °F 93% 30.43 in 3.0 mi North 15.0 mph - 0.00 in Rain Light Rain
5:46 AM 39.0 °F 31.0 °F 37.0 °F 93% 30.43 in 2.5 mi NNE 13.8 mph - 0.00 in Rain Light Rain
5:54 AM 39.0 °F 30.6 °F 37.0 °F 93% 30.43 in 3.0 mi NNE 15.0 mph - 0.00 in Rain Light Rain
6:54 AM 39.0 °F 31.0 °F 37.9 °F 96% 30.45 in 3.0 mi North 13.8 mph - 0.00 in Rain Light Rain
7:23 AM 39.0 °F 30.6 °F 37.9 °F 96% 30.45 in 2.5 mi North 15.0 mph - 0.00 in Rain Light Rain
7:54 AM 39.9 °F 32.1 °F 37.9 °F 93% 30.44 in 2.5 mi North 13.8 mph - 0.00 in Rain Light Rain
8:07 AM 39.9 °F 32.9 °F 39.0 °F 97% 30.43 in 1.8 mi NNE 11.5 mph - 0.00 in Rain Light Rain
8:33 AM 42.1 °F 34.9 °F 39.9 °F 92% 30.44 in 2.5 mi NNE 13.8 mph 21.9 mph 0.00 in   Overcast
8:54 AM 41.0 °F 33.5 °F 39.0 °F 93% 30.45 in 2.0 mi NNW 13.8 mph - 0.00 in Rain Light Rain
9:01 AM 39.9 °F 31.1 °F 39.0 °F 97% 30.45 in 1.8 mi NNW 17.3 mph - 0.01 in Rain Light Rain
9:42 AM 39.9 °F 31.1 °F 37.9 °F 93% 30.44 in 2.0 mi North 17.3 mph - 0.01 in Rain Light Rain
9:54 AM 39.9 °F 31.8 °F 39.0 °F 97% 30.44 in 2.5 mi North 15.0 mph - 0.01 in Rain Light Rain
10:07 AM 39.9 °F 31.1 °F 37.9 °F 93% 30.43 in 3.0 mi North 17.3 mph - 0.00 in Rain Light Rain
10:14 AM 39.9 °F 32.1 °F 37.9 °F 93% 30.43 in 2.5 mi North 13.8 mph - 0.00 in Rain Light Rain
10:54 AM 39.9 °F 31.8 °F 39.0 °F 97% 30.43 in 2.5 mi North 15.0 mph - 0.10 in Rain Rain
11:04 AM 39.9 °F 32.1 °F 39.0 °F 97% 30.42 in 6.0 mi North 13.8 mph - 0.00 in Rain Light Rain
11:54 AM 41.0 °F 34.3 °F 39.0 °F 93% 30.40 in 6.0 mi North 11.5 mph - 0.00 in   Overcast
12:30 PM 42.1 °F 36.1 °F 39.9 °F 92% 30.37 in 3.0 mi North 10.4 mph 21.9 mph 0.01 in Rain Light Rain
12:54 PM 43.0 °F 33.8 °F 41.0 °F 93% 30.32 in 5.0 mi NE 23.0 mph 28.8 mph 0.01 in   Overcast
1:54 PM 46.0 °F 39.9 °F 44.1 °F 93% 30.35 in 4.0 mi North 13.8 mph - 0.01 in Rain Light Rain
2:06 PM 41.0 °F 33.1 °F 39.9 °F 96% 30.35 in 1.8 mi NNW 15.0 mph 26.5 mph 0.07 in Rain Heavy Rain
2:17 PM 41.0 °F 33.1 °F 39.9 °F 96% 30.35 in 3.0 mi North 15.0 mph - 0.09 in Rain Light Rain
2:40 PM 41.0 °F 32.8 °F 39.9 °F 96% 30.35 in 1.5 mi North 16.1 mph 25.3 mph 0.20 in Rain Heavy Rain
2:54 PM 41.0 °F 32.8 °F 39.9 °F 96% 30.34 in 1.5 mi North 16.1 mph - 0.31 in Rain Heavy Rain
3:06 PM 41.0 °F 33.1 °F 39.9 °F 96% 30.33 in 2.0 mi North 15.0 mph - 0.03 in Rain Rain
3:26 PM 41.0 °F 33.1 °F 39.9 °F 96% 30.33 in 1.0 mi NNE 15.0 mph - 0.16 in Rain Heavy Rain
3:35 PM 41.0 °F 33.5 °F 39.9 °F 96% 30.33 in 3.0 mi NNE 13.8 mph - 0.16 in Rain Light Rain
3:54 PM 41.0 °F 32.8 °F 39.9 °F 96% 30.32 in 4.0 mi NNE 16.1 mph - 0.17 in Rain Light Rain
4:54 PM 42.1 °F 35.2 °F 41.0 °F 96% 30.32 in 6.0 mi NNW 12.7 mph - 0.01 in Rain Light Rain
5:54 PM 42.1 °F 34.9 °F 41.0 °F 96% 30.32 in 6.0 mi NNW 13.8 mph - 0.01 in Rain Light Rain
6:54 PM 42.1 °F 36.1 °F 41.0 °F 96% 30.32 in 10.0 mi North 10.4 mph - 0.00 in   Overcast
7:54 PM 42.1 °F 34.9 °F 41.0 °F 96% 30.30 in 10.0 mi NNW 13.8 mph - N/A   Overcast
8:06 PM 42.1 °F 35.7 °F 41.0 °F 96% 30.29 in 10.0 mi North 11.5 mph - N/A   Overcast
8:38 PM 42.1 °F 36.1 °F 41.0 °F 96% 30.29 in 5.0 mi North 10.4 mph - N/A   Overcast
8:54 PM 42.1 °F 37.7 °F 41.0 °F 96% 30.28 in 3.0 mi North 6.9 mph - N/A   Overcast
9:54 PM 42.1 °F 38.4 °F 42.1 °F 100% 30.26 in 5.0 mi NW 5.8 mph - N/A   Overcast
10:18 PM 42.1 °F 36.6 °F 41.0 °F 96% 30.27 in 2.0 mi WNW 9.2 mph - N/A   Overcast
10:33 PM 42.1 °F 37.1 °F 41.0 °F 96% 30.27 in 1.8 mi WNW 8.1 mph - N/A   Overcast
10:54 PM 42.1 °F 37.7 °F 42.1 °F 100% 30.26 in 1.0 mi West 6.9 mph - N/A   Overcast
11:09 PM 42.1 °F 37.1 °F 41.0 °F 96% 30.27 in 0.8 mi West 8.1 mph - N/A   Overcast
11:54 PM 42.1 °F 37.1 °F 42.1 °F 100% 30.25 in 0.5 mi West 8.1 mph - N/A Fog Fog